Showing default

AEROCUBE 6A, 40045

Orbit data source: Space-Track

AEROCUBE 6A, 40045 is a payload satellite owned by AERO (US) in SSO that was launched on Thu, 19 Jun 2014 UTC via a DNEPR launch vehicle from the Orenburg, Russia (OREN). Payload-class satellites include a variety of spacecraft equipped with specific instruments for various scientific and technological missions. These include communications satellites like Starlink; space stations such as the ISS; scientific satellites like the Hubble; Earth observation satellites from companies like Planet Labs, Umbra, and HawkEye 360; GPS; miniature CubeSats for education and research; and military/defense satellites.

Loading next visibility...
Identifier
40045, 2014-033AM
Orbit
SSO
Country
Flag of USUS
Related business
Manufacturer
AERO
Mission
Operational Defense Technology
Bus & Motor
CUBESAT 0.5U, Unknown motor
Mass
~0.5 kg wet, ~0.5 kg dry
Launch date (UTC)
2014-06-19 (11 years ago)
Launch vehicle
DNEPR
Launch site
Orenburg, Russia (OREN)
Object type
Payload
Rocket body
Debris
Shape & HBR
Box + 2 Pan, 0.1 m
Radar Cross Section
0.010 m², Small (<0.1 m²)

Expand to show TLE details & history
Last TLE update: 23 hours ago

TLE from 23 hours ago
0 AEROCUBE 6A
1 40045U 14033AM  25260.00341842  .00007133  00000-0  67324-3 0  9990
2 40045  97.7016  66.0921 0041770 207.6159 152.2842 14.93387051605778
Epoch: 2025-09-17T00:04Z
TLE epoch observation values (Epoch: 2025-09-17T00:04:55.351Z)
Latitude
-0.00006°
Longitude
68.67587°
Altitude
616.218 km
Speed
7.537 km/s
True Right ascension
04h 24m 22s
True Declination
0° 00' 00"
Sunlit
Object was in daylight at epoch
Visualization orbit readout
Latitude
Unknown
Longitude
Unknown
Altitude
Unknown
Speed
Unknown
Apparent Right ascension
Unknown
Apparent Declination
Unknown
Sunlit
N/A
Visualization observer readout
Local Sidereal Time
16:08:11
Azimuth
Unknown
Elevation
Unknown
Doppler factor
Unknown
Orbital elements
Apogee altitude
613.48 km
Perigee altitude
555.315 km
Semi-major axis
6,962.535 km
Eccentricity
0.00418
Inclination
97.7016°
RAAN
66.0921°
Arg. of periapsis
207.6159°
True anomaly
152.50579°
Mean anomaly
152.2842°
Eccentric anomaly
152.3951°
Mean motion
3.73587 °/min
Orbital period
96.36 mins
BSTAR
0.00067324
Loading maneuver chart data...
Computing Atmospheric mass density...
Loading historical data...
Loading historical data...
Loading historical data...
Loading historical data...
Loading historical data...
Loading historical data...
Loading historical data...

Documentation

Showing up to 5 results
|